Showing default

LINGQIAO VIDEO A, 40959

Orbit data source: Space-Track

LINGQIAO VIDEO A, 40959 is a payload satellite owned by Changguang WJ (CN) in SSO that was launched on Wed, 07 Oct 2015 UTC via a CHANG ZHENG 2D launch vehicle from the Jiuquan Satellite Launch Center, China (JSC). Payload-class satellites include a variety of spacecraft equipped with specific instruments for various scientific and technological missions. These include communications satellites like Starlink; space stations such as the ISS; scientific satellites like the Hubble; Earth observation satellites from companies like Planet Labs, Umbra, and HawkEye 360; GPS; miniature CubeSats for education and research; and military/defense satellites.

Loading next visibility...
Identifier
40959, 2015-057B
Orbit
SSO
Country
Flag of CNCN / PRC
Related business
Manufacturer
HARB/CIOMP
Mission
Operational Commercial Imaging
Bus & Motor
JL-1, Unknown motor
Mass
95 kg wet, 95 kg dry
Launch date (UTC)
2015-10-07 (11 years ago)
Launch vehicle
CHANG ZHENG 2D
Launch site
Jiuquan Satellite Launch Center, China (JSC)
Object type
Payload
Rocket body
Debris
Shape & HBR
Box, 0.8 m
Radar Cross Section
2.000 m², Medium (>0.1 m² and < 1m²)

Expand to show TLE details & history
Last TLE update: 23 hours ago

TLE from 23 hours ago
0 LINGQIAO VIDEO A
1 40959U 15057B   26172.49298794  .00001107  00000-0  16223-3 0  9991
2 40959  97.6624 167.0831 0015147 254.8989 105.0546 14.77399397576044
Epoch: 2026-06-21T11:49Z
TLE epoch observation values (Epoch: 2026-06-21T11:49:54.158Z)
Latitude
-0.00006°
Longitude
79.91498°
Altitude
643.346 km
Speed
7.535 km/s
True Right ascension
11h 08m 19s
True Declination
0° 00' 00"
Sunlit
Object was in daylight at epoch
Visualization orbit readout
Latitude
Unknown
Longitude
Unknown
Altitude
Unknown
Speed
Unknown
Apparent Right ascension
Unknown
Apparent Declination
Unknown
Sunlit
N/A
Visualization observer readout
Local Sidereal Time
21:35:26
Azimuth
Unknown
Elevation
Unknown
Doppler factor
Unknown
Orbital elements
Apogee altitude
645.201 km
Perigee altitude
623.957 km
Semi-major axis
7,012.716 km
Eccentricity
0.00151
Inclination
97.6624°
RAAN
167.0831°
Arg. of periapsis
254.8989°
True anomaly
105.22213°
Mean anomaly
105.0546°
Eccentric anomaly
105.13837°
Mean motion
3.69585 °/min
Orbital period
97.41 mins
BSTAR
0.00016223
Loading maneuver chart data...
Computing Atmospheric mass density...
Loading historical data...
Loading historical data...
Loading historical data...
Loading historical data...
Loading historical data...
Loading historical data...
Loading historical data...
Other satellites on launch #57 in the year 2015 (2015-10-07 UTC)

Documentation

Showing up to 5 results
|